Location: Burla
(50.9568°N, 10.4983°E)
Time: 20:48:04
(UTC+00:00)

Cosmos 1943 Rocket - Pass Details

Date: 18 January 2026
Orbit: 811 x 842 km, 71.0° (Epoch: 15 February)

Event Time Altitude Azimuth Distance (km) Brightness Sun altitude
Exits shadow 06:07:08 - 250° (WSW) 2,925 4.6 -10.0°
Reaches altitude 10° 06:08:44 10° 258° (WSW) 2,400 4.1 -9.7°
Maximum altitude 06:13:26 28° 317° (NW) 1,475 3.0 -9.0°
Drops below altitude 10° 06:18:11 10° 16° (NNE) 2,414 4.5 -8.3°
Sets 06:20:57 0° 28° (NNE) 3,352 5.4 -7.9°
